Temperature
21 21 21 21 21 21 21 21 20 21 21 21 21 20 20 19 19 18 18 17 17 16 16 16 15 15 15 15 14 14 14 14 14 14 13 13 13 13 12 12 12 12 12 12
20 21 21 21 21 21 21 21 21 21 21 21 21 20 20 19 18 18 17 17 17 16 16 15 15 15 15 15 14 14 14 13 13 13 13 13 12 12 12 12 12 11 11 11
19 20 20 19 20 21 21 21 21 20 20 20 20 20 19 18 18 17 17 16 16 16 16 15 15 15 15 14 14 14 13 13 13 13 13 12 12 12 12 11 11 11 11 11
18 19 18 19 21 21 21 21 21 20 20 19 19 19 18 17 17 16 16 16 15 15 15 15 15 15 14 14 14 14 13 13 12 12 12 12 12 12 11 11 11 11 11 11
18 17 18 19 20 20 20 19 20 20 19 19 18 18 17 17 16 16 15 15 15 15 15 15 15 14 14 14 13 13 13 13 12 12 12 12 12 11 11 11 11 11 11 11
17 17 17 18 19 20 19 18 19 19 19 18 18 16 16 16 15 15 15 15 14 14 14 14 14 14 14 13 13 13 12 12 12 12 12 11 11 11 11 11 10 10 10 10
17 17 17 18 18 19 17 17 18 18 18 17 17 16 16 15 15 14 14 14 14 14 14 14 14 13 13 13 13 12 12 12 12 12 11 11 11 11 10 10 10 10 10 10
16 16 16 17 18 17 17 17 17 17 17 16 16 15 15 14 14 14 14 13 13 13 13 13 13 13 13 12 12 12 12 12 11 11 11 11 11 10 10 10 10 10 10 9
16 16 17 17 17 16 16 16 16 16 16 15 15 15 14 14 14 13 13 13 13 13 13 13 13 12 12 12 12 12 11 11 11 11 11 11 10 10 10 10 9 9 9 9
16 16 16 16 16 16 15 15 15 15 15 14 14 14 13 13 13 13 13 12 12 12 12 12 12 12 12 12 11 11 11 11 11 10 10 10 10 10 9 9 9 9 9 9
15 16 16 15 15 15 15 14 14 14 14 14 14 13 13 13 12 12 12 12 12 12 12 12 12 11 11 11 11 11 11 10 10 10 10 10 9 9 9 9 9 9 9 9
14 15 15 15 15 14 14 14 14 13 13 13 13 13 12 12 12 12 12 12 11 12 11 11 11 11 11 11 11 10 10 10 10 10 9 9 9 9 9 9 9 9 9 9
15 14 14 14 14 14 13 13 13 13 13 12 12 12 12 12 12 11 11 11 11 11 11 11 11 11 10 10 10 10 10 10 9 9 9 9 9 9 9 8 8 8 8 8
14 14 13 13 13 13 13 13 12 12 12 12 12 12 11 11 11 11 11 10 10 10 10 10 10 10 10 10 10 10 9 9 9 9 9 9 8 8 8 8 8 8 8 8
13 13 13 13 12 12 12 12 12 12 12 11 11 11 11 11 10 10 10 10 10 10 10 10 10 10 10 9 9 9 9 9 9 9 8 8 8 8 8 7 7 7 7 7
13 13 12 12 12 12 12 12 11 11 11 11 11 10 10 10 10 10 10 9 9 9 9 9 9 9 9 9 9 9 8 8 8 8 8 8 7 7 7 7 7 7 7 7
12 12 12 11 11 11 11 11 11 11 11 10 10 10 10 10 9 9 9 9 9 9 9 9 9 9 9 9 8 8 8 8 8 8 7 7 7 7 7 7 7 7 7 7
11 11 11 11 11 11 10 10 10 10 10 10 10 9 9 9 9 9 9 9 9 9 8 8 8 8 8 8 8 8 8 7 7 7 7 7 6 6 6 6 6 6 6 6
11 10 10 10 10 10 10 10 10 10 9 9 9 9 9 9 8 8 8 8 8 8 8 8 8 8 7 7 7 7 7 7 7 6 6 6 6 6 6 6 6 6 6 6
10 10 10 10 9 9 9 9 9 9 9 9 9 8 8 8 8 8 8 8 8 7 7 7 7 7 7 7 7 6 6 6 6 6 6 5 5 5 5 5 5 5 5 5
9 9 9 9 9 9 9 9 8 8 8 8 8 8 8 8 7 7 7 7 7 7 7 7 6 6 6 6 6 6 6 6 5 5 5 5 5 5 5 4 5 5 5 5
9 9 9 8 8 8 8 8 8 8 8 8 8 7 7 7 7 7 7 6 6 6 6 6 6 6 6 6 5 5 5 5 5 5 5 4 4 4 4 4 4 4 4 4
8 8 8 8 8 8 8 8 8 7 7 7 7 7 7 7 6 6 6 6 6 6 6 6 6 5 5 5 5 5 5 4 4 4 4 4 4 4 4 4 4 4 3 3
8 8 8 8 8 7 7 7 7 7 7 7 7 6 6 6 6 6 5 5 5 5 5 5 5 5 5 5 4 4 4 4 4 4 4 3 3 3 3 3 3 3 3 3
8 7 7 7 7 7 7 7 7 6 6 6 6 6 6 6 5 5 5 5 5 5 5 4 4 4 4 4 4 3 3 3 3 3 3 3 3 3 3 3 3 2 2 2
7 7 7 7 6 6 6 6 6 6 6 5 5 5 5 5 5 4 4 4 4 4 4 4 4 4 3 3 3 3 3 3 3 3 2 2 2 2 2 2 2 2 2 1
6 6 6 6 6 6 6 6 6 5 5 5 5 4 4 4 4 4 4 4 3 3 3 3 3 3 3 3 3 2 2 2 2 2 2 2 2 2 2 1 1 1 1 1
Wind_Speed
9 8 8 8 9 9 9 9 9 7 6 2 1 1 2 3 3 3 4 4 4 4 3 3 2 2 2 3 2 2 3 3 3 3 3 2 2 2 2 2 1 1 1 0
10 10 8 9 9 10 10 9 10 9 7 3 1 2 2 2 3 3 3 2 3 3 3 3 3 2 2 3 3 3 3 2 3 3 2 2 2 2 2 2 1 0 1 1
10 10 9 9 8 8 8 7 7 7 4 2 1 1 1 1 2 1 1 1 1 1 2 3 3 3 3 3 3 3 3 2 3 3 3 2 2 2 2 2 1 1 1 1
7 9 10 4 2 4 7 6 4 3 1 2 1 1 2 2 1 2 2 1 0 1 0 1 2 2 3 3 3 3 3 3 3 3 3 2 2 2 2 2 2 1 1 1
6 7 8 4 2 3 4 5 3 2 1 1 2 1 2 3 2 2 1 1 1 0 0 1 1 2 3 3 3 3 3 3 3 3 3 3 3 2 2 2 2 2 1 1
6 6 6 1 3 4 3 3 4 3 1 1 1 1 0 2 3 2 2 1 1 1 1 0 1 2 3 2 2 3 2 2 2 3 3 3 3 2 2 2 3 3 2 2
8 8 4 2 3 3 2 2 5 4 4 3 2 2 1 2 2 2 2 2 1 1 1 1 1 2 2 2 2 2 2 2 1 2 3 3 3 2 2 2 3 3 3 2
6 7 4 2 2 1 3 5 5 5 5 4 3 3 2 2 1 1 1 1 1 0 0 1 1 2 1 2 1 2 2 2 2 2 2 2 2 3 3 3 3 3 3 2
3 2 2 3 3 4 5 5 5 4 4 4 3 2 2 1 0 0 1 1 1 1 1 1 1 2 1 1 2 3 2 2 3 3 2 3 3 3 2 3 3 3 3 3
4 2 2 3 3 3 4 5 6 5 4 3 2 3 2 2 1 1 1 1 1 1 1 2 2 2 1 1 2 3 3 3 3 2 2 2 2 2 2 3 3 3 3 3
7 4 3 2 2 3 3 4 5 4 4 4 3 3 2 2 2 2 1 1 1 2 2 3 2 2 2 2 2 3 3 3 3 2 3 3 2 1 2 3 4 4 3 3
6 5 4 4 3 3 3 4 4 4 4 4 3 3 3 3 3 2 1 2 2 2 2 3 2 2 2 2 3 3 3 3 2 2 2 2 2 1 1 2 4 5 4 4
6 5 4 5 4 4 3 4 4 4 3 3 3 3 3 3 3 2 2 2 2 2 2 2 2 1 2 2 3 3 3 2 2 2 2 2 2 2 1 1 2 3 4 4
4 3 4 4 4 3 3 4 4 4 3 3 3 3 3 3 3 3 3 3 2 2 2 2 2 2 1 1 2 2 2 2 2 2 2 2 2 2 2 2 2 2 2 4
4 4 4 3 3 4 4 4 4 4 4 4 4 3 3 3 3 3 3 3 2 2 2 2 2 2 1 1 2 2 2 2 2 2 2 2 2 2 2 2 3 2 1 2
4 3 3 4 4 5 5 5 4 4 4 4 4 4 4 3 3 3 3 3 3 3 2 3 3 2 1 1 2 2 2 3 2 2 2 2 2 2 2 3 3 3 3 3
5 4 4 5 5 5 5 5 5 5 4 4 4 4 4 4 3 3 4 4 4 3 3 2 2 2 2 2 2 2 2 2 3 3 3 3 2 3 3 3 3 3 3 4
4 4 4 5 4 4 5 5 5 4 4 4 3 3 4 4 4 4 4 4 4 3 3 2 1 2 2 2 2 2 2 2 2 2 2 2 2 3 3 3 3 3 2 2
3 3 4 4 4 4 4 4 5 4 4 3 3 3 4 4 4 4 4 4 4 4 3 1 2 2 2 1 1 2 2 2 2 2 2 2 3 2 2 3 3 3 2 2
3 3 4 4 5 4 4 4 4 3 3 3 3 4 4 3 3 4 4 4 3 2 2 1 2 2 1 1 2 2 2 2 2 2 2 2 2 3 2 3 3 2 2 2
3 4 4 4 4 4 4 4 3 3 3 3 3 4 3 3 3 3 3 3 3 3 2 3 2 1 1 1 3 3 2 2 2 2 2 2 3 3 3 3 3 2 2 2
3 3 4 4 4 4 4 3 3 3 3 3 3 3 3 3 3 3 2 2 1 2 3 2 1 1 2 2 3 3 2 2 2 2 3 3 3 3 3 3 2 2 2 2
4 4 5 5 5 4 4 3 3 3 3 2 3 3 2 2 2 2 2 2 1 2 3 3 2 2 2 2 3 3 3 3 3 2 2 2 2 2 2 2 1 2 2 2
5 5 4 5 5 4 4 3 3 2 2 2 2 2 2 2 2 1 1 2 3 3 3 2 2 2 3 2 2 2 2 2 2 2 2 2 2 2 2 2 2 2 2 2
5 5 5 5 4 4 3 3 2 2 1 1 1 1 1 1 2 2 2 2 2 2 2 2 3 3 3 3 3 2 2 2 2 2 2 2 2 2 2 2 2 2 2 2
5 4 4 4 3 3 2 2 2 1 1 1 1 1 2 2 2 2 2 1 2 3 2 2 2 2 2 2 2 2 2 2 2 2 2 1 1 2 2 2 2 2 2 2
4 3 3 3 3 2 2 2 1 1 1 1 1 1 1 1 1 2 2 2 2 2 2 2 2 2 2 1 1 2 2 1 1 1 1 1 1 1 2 2 2 2 2 2
Wind_Direction
271 277 277 273 265 260 257 261 267 274 272 249 171 135 132 123 123 129 140 147 148 150 149 147 151 173 163 154 153 158 163 166 154 137 128 134 143 143 131 126 131 134 113 96
271 266 271 272 260 257 251 256 262 270 278 319 129 126 126 132 137 147 157 161 164 165 162 171 180 191 168 161 165 162 161 157 137 132 128 132 139 133 125 125 142 118 126 146
269 267 274 261 258 256 256 252 257 266 281 355 351 95 88 81 131 114 124 113 119 190 190 196 194 191 176 175 161 162 163 155 143 142 147 151 143 130 139 154 156 155 186 186
269 269 255 258 290 275 263 262 281 292 349 347 341 43 75 60 71 75 40 34 34 301 255 213 191 171 158 153 151 160 157 151 139 145 151 145 135 144 170 165 173 189 209 206
253 261 265 259 304 312 279 276 326 311 334 53 58 58 87 62 47 41 14 338 350 322 307 243 192 161 145 153 163 161 159 157 154 156 160 155 160 176 189 179 184 196 212 216
251 260 264 322 18 342 299 266 3 358 19 73 84 276 311 59 46 44 28 17 9 341 327 199 124 118 135 160 164 165 164 164 162 164 163 169 179 186 198 191 192 194 202 212
251 256 264 3 11 351 258 353 12 19 21 11 340 349 25 69 49 38 28 11 3 344 350 105 119 121 153 175 182 171 148 147 163 170 170 175 180 188 196 203 199 197 195 207
250 252 253 51 40 357 1 18 19 15 12 11 15 29 32 39 46 25 18 6 332 320 54 104 131 140 167 199 173 133 135 163 177 185 187 174 176 202 203 202 203 204 201 213
260 265 25 33 25 12 12 359 2 4 5 5 360 1 355 343 336 345 323 291 275 221 214 178 166 160 198 209 164 154 166 198 195 191 184 174 179 197 205 203 207 208 206 215
282 279 324 353 1 11 9 353 349 359 3 358 344 324 334 327 318 287 271 266 256 217 226 225 191 179 206 211 190 178 185 200 199 188 175 178 185 194 200 204 211 217 215 217
276 284 303 312 342 348 346 337 336 345 349 336 313 308 315 308 298 278 269 268 263 245 241 239 201 191 207 213 215 206 196 196 198 194 183 187 189 208 214 208 200 209 224 218
271 289 294 299 314 318 323 324 326 332 334 327 320 307 301 294 293 295 287 276 259 253 244 244 224 218 210 206 212 211 215 203 196 191 187 181 174 205 323 224 203 206 213 209
282 296 306 313 315 316 313 317 318 318 318 318 318 314 308 309 309 303 297 288 272 248 241 245 240 248 228 203 206 214 218 206 190 186 188 191 188 193 236 292 243 221 212 207
295 289 282 285 295 305 309 311 312 315 319 319 318 316 314 311 307 305 305 299 290 278 258 250 245 251 262 216 201 215 223 214 191 183 188 201 207 207 213 231 241 246 224 209
283 280 278 293 294 292 295 297 297 302 317 322 319 310 305 300 299 299 299 294 278 274 282 276 262 251 249 227 214 216 212 201 186 182 191 206 218 219 219 235 240 229 204 213
285 272 261 263 267 278 285 286 287 292 303 306 306 306 306 300 303 307 300 291 277 270 270 271 267 263 235 212 217 223 216 211 202 198 202 212 213 222 234 241 243 227 213 204
271 266 268 270 272 276 283 287 289 294 294 291 296 303 304 301 296 296 290 285 279 275 275 270 264 267 257 223 220 221 213 214 212 214 210 213 215 223 230 239 243 238 227 205
271 276 279 282 282 279 281 285 288 290 289 294 300 303 300 295 291 290 292 288 282 274 272 266 262 260 258 237 236 229 219 220 218 217 213 220 237 235 234 241 248 243 239 212
302 297 297 296 294 283 277 282 286 291 297 297 293 291 292 291 296 297 295 294 294 291 288 269 277 257 264 274 278 252 233 227 222 220 219 234 245 249 241 243 249 241 222 207
290 293 294 295 294 291 288 288 289 293 297 295 289 285 291 295 298 300 298 297 299 295 307 322 281 270 254 250 279 256 240 234 224 223 229 233 238 247 244 248 248 237 229 216
274 278 283 288 291 289 286 284 285 283 286 286 287 290 295 298 298 299 301 306 326 351 332 307 288 281 268 285 271 256 242 239 234 228 233 240 242 246 250 247 241 242 242 235
274 276 280 281 283 282 280 281 281 281 281 279 283 294 304 305 304 302 302 301 332 355 328 297 293 313 309 303 263 253 246 249 248 240 238 239 239 246 252 248 243 248 247 243
282 276 277 277 277 278 280 276 273 275 274 282 292 298 300 303 300 300 310 328 349 331 314 302 313 306 297 283 270 263 253 250 252 250 245 244 250 255 254 252 253 249 241 241
285 282 281 284 282 276 270 268 273 275 276 285 290 302 309 310 319 344 353 338 342 330 313 303 311 299 297 280 273 273 268 262 255 252 254 255 254 256 257 253 252 252 248 249
288 288 286 281 275 273 278 283 282 277 278 285 293 327 340 354 349 345 335 333 339 328 316 303 300 294 286 277 276 278 274 263 262 260 250 242 237 241 247 250 245 243 247 247
288 287 285 284 285 284 280 275 276 278 283 305 339 15 16 15 1 340 326 325 326 321 313 292 280 270 271 283 293 292 287 289 285 269 254 252 246 245 243 246 255 250 243 242
283 283 285 284 282 276 272 267 266 283 328 356 355 3 356 345 335 338 349 349 339 329 329 324 319 317 315 309 301 301 302 304 305 304 292 276 275 275 268 262 258 253 250 243
Height
1468 1466 1466 1467 1468 1467 1469 1470 1475 1472 1470 1469 1469 1471 1472 1474 1476 1478 1480 1482 1484 1486 1487 1488 1489 1490 1491 1492 1493 1494 1495 1495 1497 1498 1499 1500 1501 1501 1502 1503 1504 1504 1505 1505
1470 1465 1464 1466 1464 1464 1465 1465 1467 1467 1468 1465 1467 1469 1472 1473 1476 1477 1479 1481 1482 1484 1485 1486 1488 1489 1489 1490 1491 1492 1493 1494 1495 1496 1496 1497 1498 1499 1499 1500 1501 1502 1502 1503
1473 1464 1464 1470 1463 1462 1462 1461 1464 1468 1468 1465 1467 1469 1471 1473 1474 1476 1478 1479 1481 1482 1483 1484 1485 1486 1487 1488 1489 1490 1491 1492 1492 1493 1494 1495 1496 1496 1497 1498 1499 1499 1500 1500
1473 1471 1479 1467 1457 1457 1459 1460 1461 1462 1464 1465 1468 1469 1471 1473 1474 1475 1477 1478 1479 1480 1481 1482 1482 1483 1484 1485 1486 1487 1488 1489 1490 1490 1491 1492 1493 1493 1494 1495 1496 1496 1497 1498
1473 1475 1470 1461 1458 1458 1461 1462 1461 1461 1463 1466 1468 1468 1471 1472 1474 1475 1476 1477 1478 1478 1478 1479 1480 1481 1482 1483 1484 1485 1486 1486 1487 1488 1489 1489 1490 1491 1491 1492 1493 1494 1494 1495
1471 1476 1477 1466 1459 1458 1461 1466 1462 1462 1463 1465 1467 1471 1472 1472 1473 1474 1475 1475 1476 1476 1476 1477 1477 1478 1479 1480 1481 1482 1483 1484 1485 1485 1486 1487 1487 1488 1489 1490 1490 1491 1491 1492
1472 1473 1468 1463 1461 1460 1471 1471 1464 1463 1465 1466 1467 1470 1471 1471 1472 1472 1473 1474 1474 1474 1474 1475 1475 1476 1476 1478 1478 1479 1481 1481 1482 1483 1484 1484 1485 1486 1486 1487 1488 1488 1489 1489
1469 1474 1473 1463 1463 1466 1467 1465 1465 1466 1466 1467 1468 1469 1469 1470 1470 1471 1471 1471 1472 1472 1472 1473 1473 1473 1474 1475 1476 1477 1478 1478 1479 1480 1481 1482 1482 1483 1484 1484 1485 1485 1486 1486
1467 1469 1465 1464 1465 1466 1466 1466 1466 1467 1467 1468 1468 1468 1468 1469 1469 1469 1469 1469 1470 1470 1470 1470 1471 1471 1472 1472 1473 1474 1475 1476 1476 1477 1478 1479 1479 1480 1481 1481 1482 1482 1482 1483
1464 1463 1464 1465 1465 1466 1467 1467 1467 1467 1467 1467 1467 1467 1467 1467 1467 1467 1467 1467 1467 1467 1467 1467 1468 1469 1469 1470 1470 1471 1471 1472 1474 1474 1475 1476 1476 1477 1477 1478 1478 1478 1479 1479
1464 1464 1464 1464 1466 1466 1467 1467 1467 1467 1467 1467 1466 1466 1466 1466 1466 1465 1465 1465 1464 1464 1464 1465 1465 1466 1466 1467 1467 1467 1468 1469 1470 1471 1472 1472 1473 1473 1473 1474 1474 1474 1474 1475
1465 1464 1464 1464 1465 1465 1466 1466 1466 1466 1465 1465 1465 1465 1465 1464 1464 1463 1462 1462 1462 1461 1461 1462 1462 1462 1463 1464 1464 1464 1465 1466 1466 1467 1468 1469 1469 1470 1470 1471 1471 1472 1472 1472
1462 1463 1463 1464 1464 1464 1464 1465 1465 1465 1464 1464 1463 1463 1463 1462 1461 1461 1460 1460 1459 1459 1459 1459 1459 1459 1459 1460 1460 1461 1461 1462 1463 1463 1464 1465 1466 1466 1466 1467 1468 1468 1468 1468
1461 1461 1461 1462 1463 1463 1463 1463 1463 1463 1463 1462 1461 1461 1460 1460 1459 1458 1458 1457 1457 1457 1456 1456 1456 1456 1456 1457 1457 1457 1458 1459 1459 1459 1460 1461 1462 1462 1462 1463 1463 1463 1464 1464
1459 1459 1460 1460 1461 1461 1461 1461 1461 1461 1461 1460 1459 1459 1458 1457 1456 1456 1456 1455 1455 1454 1453 1453 1453 1453 1453 1453 1454 1454 1454 1455 1456 1456 1456 1457 1458 1458 1458 1459 1459 1459 1459 1459
1457 1457 1457 1458 1458 1459 1459 1459 1459 1458 1458 1458 1457 1456 1455 1455 1454 1453 1453 1452 1452 1451 1450 1451 1450 1450 1450 1450 1450 1450 1451 1452 1452 1452 1453 1453 1454 1454 1454 1454 1454 1454 1454 1454
1454 1455 1455 1456 1456 1456 1456 1456 1456 1456 1456 1455 1454 1453 1453 1452 1451 1450 1450 1449 1449 1448 1448 1447 1447 1447 1447 1447 1447 1447 1447 1448 1448 1449 1449 1449 1449 1450 1450 1450 1450 1450 1450 1450
1452 1453 1453 1453 1453 1453 1453 1453 1453 1453 1452 1452 1451 1451 1450 1449 1448 1448 1447 1446 1446 1445 1444 1444 1444 1444 1444 1443 1443 1443 1443 1443 1444 1445 1445 1445 1446 1446 1446 1446 1446 1446 1446 1446
1450 1450 1450 1450 1451 1450 1450 1450 1450 1450 1449 1448 1448 1448 1447 1446 1446 1445 1444 1443 1442 1441 1441 1441 1440 1440 1440 1440 1440 1439 1440 1440 1440 1441 1441 1442 1442 1442 1442 1442 1442 1442 1442 1442
1448 1448 1448 1448 1448 1448 1447 1447 1447 1446 1446 1445 1445 1444 1444 1443 1442 1442 1441 1440 1439 1438 1438 1437 1436 1436 1436 1436 1436 1436 1436 1436 1436 1437 1437 1437 1438 1438 1438 1438 1438 1438 1437 1437
1445 1445 1445 1445 1445 1444 1444 1444 1443 1443 1443 1442 1442 1441 1441 1440 1439 1438 1437 1437 1436 1435 1434 1433 1433 1432 1432 1432 1432 1432 1432 1432 1433 1433 1433 1433 1434 1433 1434 1434 1433 1433 1433 1433
1443 1443 1443 1442 1442 1441 1441 1441 1440 1440 1439 1439 1439 1438 1437 1437 1436 1435 1435 1434 1432 1432 1431 1430 1429 1429 1429 1428 1428 1428 1428 1428 1429 1429 1429 1429 1429 1429 1429 1429 1429 1429 1429 1429
1440 1440 1440 1439 1439 1438 1438 1437 1437 1436 1436 1436 1435 1435 1434 1434 1433 1432 1431 1430 1429 1428 1427 1427 1426 1426 1425 1425 1425 1425 1425 1425 1425 1425 1425 1425 1425 1425 1425 1424 1424 1424 1424 1424
1437 1437 1437 1436 1436 1435 1435 1434 1434 1433 1433 1433 1432 1432 1432 1431 1430 1430 1428 1427 1426 1425 1424 1423 1423 1422 1422 1421 1421 1421 1421 1421 1421 1421 1421 1421 1421 1421 1420 1420 1420 1420 1420 1420
1434 1434 1433 1433 1432 1432 1431 1431 1430 1430 1430 1430 1430 1429 1429 1428 1427 1426 1425 1424 1423 1422 1421 1420 1419 1419 1419 1418 1418 1418 1418 1417 1417 1417 1417 1417 1416 1416 1416 1416 1415 1415 1415 1415
1431 1430 1430 1430 1429 1429 1428 1428 1427 1427 1427 1427 1427 1426 1426 1425 1425 1424 1423 1421 1420 1419 1418 1417 1416 1416 1415 1415 1415 1414 1414 1414 1413 1413 1413 1412 1412 1412 1412 1411 1411 1411 1410 1410
1427 1427 1426 1426 1426 1425 1425 1425 1424 1424 1424 1424 1424 1424 1423 1423 1422 1421 1420 1419 1418 1417 1416 1415 1414 1413 1413 1412 1411 1411 1411 1410 1410 1409 1409 1408 1408 1408 1407 1407 1406 1406 1406 1406